Previsão horária em Celiny

Hoje, 31 Julho, Sábado

Tempo Temperatura Precipitação Vento Pressão Humidade
00:00 +20°C° 0 mm 1 m/s 727 mmHg 71%
01:00 +20°C° 0 mm 1 m/s 727 mmHg 73%
02:00 +20°C° 0.2 mm 1 m/s 727 mmHg 76%
03:00 +19°C° 0.2 mm 1 m/s 726 mmHg 79%
04:00 +19°C° 0.2 mm 1 m/s 726 mmHg 82%
05:00 +19°C° 0.2 mm 2 m/s 726 mmHg 80%
06:00 +21°C° 0.2 mm 2 m/s 727 mmHg 77%
07:00 +23°C° 0.2 mm 2 m/s 727 mmHg 75%
08:00 +24°C° 0 mm 3 m/s 727 mmHg 70%
09:00 +26°C° 0 mm 3 m/s 727 mmHg 65%
10:00 +27°C° 0 mm 4 m/s 727 mmHg 60%
11:00 +26°C° 0.5 mm 4 m/s 727 mmHg 65%
12:00 +23°C° 0.5 mm 5 m/s 727 mmHg 71%
13:00 +22°C° 0.5 mm 5 m/s 727 mmHg 76%
14:00 +21°C° 1.2 mm 5 m/s 727 mmHg 79%
15:00 +20°C° 1.2 mm 4 m/s 727 mmHg 83%
16:00 +19°C° 1.2 mm 3 m/s 727 mmHg 87%
17:00 +19°C° 0.1 mm 3 m/s 727 mmHg 88%
18:00 +19°C° 0.1 mm 3 m/s 727 mmHg 89%
19:00 +18°C° 0.1 mm 2 m/s 727 mmHg 89%
20:00 +18°C° 0 mm 2 m/s 727 mmHg 88%
21:00 +18°C° 0 mm 2 m/s 728 mmHg 87%
22:00 +17°C° 0 mm 2 m/s 728 mmHg 86%
23:00 +17°C° 0 mm 2 m/s 728 mmHg 85%

Amanhã, 1 Agosto, Domingo

Tempo Temperatura Precipitação Vento Pressão Humidade
00:00 +17°C° 0 mm 2 m/s 728 mmHg 83%
01:00 +17°C° 0 mm 2 m/s 728 mmHg 81%
02:00 +18°C° 0 mm 1 m/s 728 mmHg 80%
03:00 +16°C° 0 mm 1 m/s 728 mmHg 79%
04:00 +15°C° 0 mm 0 m/s 728 mmHg 78%
05:00 +18°C° 0 mm 1 m/s 728 mmHg 75%
06:00 +20°C° 0 mm 1 m/s 728 mmHg 72%
07:00 +21°C° 0 mm 1 m/s 728 mmHg 68%
08:00 +20°C° 0.1 mm 2 m/s 727 mmHg 70%
09:00 +21°C° 0.1 mm 3 m/s 727 mmHg 72%
10:00 +21°C° 0.1 mm 4 m/s 726 mmHg 74%
11:00 +22°C° 0.2 mm 3 m/s 726 mmHg 70%
12:00 +25°C° 0.2 mm 2 m/s 726 mmHg 65%
13:00 +26°C° 0.2 mm 2 m/s 725 mmHg 61%
14:00 +26°C° 0.2 mm 3 m/s 725 mmHg 63%
15:00 +26°C° 0.2 mm 4 m/s 725 mmHg 64%
16:00 +26°C° 0.2 mm 5 m/s 724 mmHg 66%
17:00 +22°C° 5.2 mm 4 m/s 724 mmHg 76%
18:00 +20°C° 5.2 mm 4 m/s 725 mmHg 86%
19:00 +17°C° 5.2 mm 4 m/s 725 mmHg 96%
20:00 +17°C° 0.5 mm 3 m/s 725 mmHg 96%
21:00 +17°C° 0.5 mm 2 m/s 726 mmHg 96%
22:00 +16°C° 0.5 mm 1 m/s 726 mmHg 96%
23:00 +16°C° 0.6 mm 2 m/s 726 mmHg 96%

Depois de amanhã, 2 Agosto, Segunda-feira

Tempo Temperatura Precipitação Vento Pressão Humidade
00:00 +16°C° 0.6 mm 2 m/s 726 mmHg 96%
01:00 +16°C° 0.6 mm 3 m/s 726 mmHg 96%
02:00 +14°C° 0.2 mm 3 m/s 726 mmHg 95%
03:00 +14°C° 0.2 mm 3 m/s 726 mmHg 95%
04:00 +14°C° 0.2 mm 4 m/s 726 mmHg 94%
05:00 +13°C° 1.7 mm 3 m/s 727 mmHg 95%
06:00 +13°C° 1.7 mm 3 m/s 727 mmHg 95%
07:00 +13°C° 1.7 mm 3 m/s 728 mmHg 96%
08:00 +14°C° 0.4 mm 3 m/s 728 mmHg 91%
09:00 +16°C° 0.4 mm 3 m/s 728 mmHg 87%
10:00 +17°C° 0.4 mm 3 m/s 729 mmHg 82%
11:00 +18°C° 0.3 mm 3 m/s 729 mmHg 77%
12:00 +19°C° 0.3 mm 4 m/s 729 mmHg 72%
13:00 +20°C° 0.3 mm 4 m/s 729 mmHg 66%
14:00 +21°C° 0.3 mm 4 m/s 729 mmHg 67%
15:00 +21°C° 0.3 mm 4 m/s 729 mmHg 67%
16:00 +21°C° 0.3 mm 4 m/s 729 mmHg 67%
17:00 +20°C° 0.5 mm 4 m/s 729 mmHg 72%
18:00 +18°C° 0.5 mm 3 m/s 729 mmHg 78%
19:00 +17°C° 0.5 mm 2 m/s 729 mmHg 83%
20:00 +17°C° 0 mm 2 m/s 730 mmHg 84%
21:00 +16°C° 0 mm 2 m/s 730 mmHg 86%
22:00 +15°C° 0 mm 2 m/s 730 mmHg 88%
23:00 +15°C° 0 mm 2 m/s 730 mmHg 89%

3 Agosto, Terça-feira

Tempo Temperatura Precipitação Vento Pressão Humidade
00:00 +14°C° 0 mm 2 m/s 731 mmHg 90%
01:00 +14°C° 0 mm 2 m/s 731 mmHg 92%
02:00 +14°C° 0 mm 2 m/s 731 mmHg 92%
03:00 +13°C° 0 mm 2 m/s 731 mmHg 93%
04:00 +13°C° 0 mm 2 m/s 731 mmHg 94%
05:00 +14°C° 0 mm 2 m/s 732 mmHg 90%
06:00 +16°C° 0 mm 2 m/s 732 mmHg 87%
07:00 +17°C° 0 mm 2 m/s 732 mmHg 83%
08:00 +18°C° 0 mm 2 m/s 732 mmHg 76%
09:00 +20°C° 0 mm 2 m/s 733 mmHg 68%
10:00 +21°C° 0 mm 2 m/s 733 mmHg 60%
11:00 +23°C° 0 mm 2 m/s 733 mmHg 57%
12:00 +24°C° 0 mm 2 m/s 732 mmHg 53%
13:00 +24°C° 0 mm 1 m/s 732 mmHg 50%
14:00 +25°C° 0 mm 1 m/s 732 mmHg 49%
15:00 +25°C° 0 mm 1 m/s 732 mmHg 49%
16:00 +25°C° 0 mm 1 m/s 731 mmHg 49%
17:00 +23°C° 0 mm 1 m/s 731 mmHg 57%
18:00 +21°C° 0 mm 2 m/s 731 mmHg 64%
19:00 +19°C° 0 mm 2 m/s 731 mmHg 72%
20:00 +18°C° 0.1 mm 2 m/s 731 mmHg 74%
21:00 +18°C° 0.1 mm 2 m/s 731 mmHg 76%
22:00 +17°C° 0.1 mm 2 m/s 731 mmHg 78%
23:00 +16°C° 0 mm 2 m/s 730 mmHg 80%

4 Agosto, Quarta-feira

Tempo Temperatura Precipitação Vento Pressão Humidade
00:00 +16°C° 0 mm 3 m/s 730 mmHg 81%
01:00 +16°C° 0 mm 3 m/s 730 mmHg 83%
02:00 +14°C° 0 mm 3 m/s 729 mmHg 84%
03:00 +14°C° 0 mm 3 m/s 729 mmHg 85%
04:00 +14°C° 0 mm 3 m/s 728 mmHg 86%
05:00 +16°C° 0 mm 2 m/s 728 mmHg 84%
06:00 +16°C° 0 mm 2 m/s 729 mmHg 83%
07:00 +18°C° 0 mm 1 m/s 729 mmHg 81%
08:00 +17°C° 0.4 mm 2 m/s 729 mmHg 83%
09:00 +17°C° 0.4 mm 2 m/s 729 mmHg 85%
10:00 +18°C° 0.4 mm 2 m/s 729 mmHg 87%
11:00 +18°C° 1.1 mm 2 m/s 729 mmHg 87%
12:00 +18°C° 1.1 mm 2 m/s 728 mmHg 88%
13:00 +18°C° 1.1 mm 2 m/s 728 mmHg 88%
14:00 +18°C° 0.4 mm 2 m/s 728 mmHg 88%
15:00 +17°C° 0.4 mm 2 m/s 728 mmHg 89%
16:00 +17°C° 0.4 mm 2 m/s 728 mmHg 89%
17:00 +17°C° 0.1 mm 2 m/s 728 mmHg 91%
18:00 +16°C° 0.1 mm 2 m/s 728 mmHg 92%
19:00 +16°C° 0.1 mm 2 m/s 728 mmHg 93%
20:00 +16°C° 0 mm 2 m/s 728 mmHg 94%
21:00 +15°C° 0 mm 2 m/s 729 mmHg 95%
22:00 +15°C° 0 mm 2 m/s 729 mmHg 97%
23:00 +14°C° 0 mm 2 m/s 728 mmHg 96%

5 Agosto, Quinta-feira

Tempo Temperatura Precipitação Vento Pressão Humidade
00:00 +14°C° 0 mm 2 m/s 728 mmHg 96%
01:00 +14°C° 0 mm 2 m/s 728 mmHg 96%
02:00 +13°C° 0 mm 2 m/s 728 mmHg 95%
03:00 +13°C° 0 mm 2 m/s 728 mmHg 95%
04:00 +13°C° 0 mm 2 m/s 728 mmHg 94%
05:00 +13°C° 0 mm 3 m/s 728 mmHg 90%
06:00 +14°C° 0 mm 3 m/s 728 mmHg 86%
07:00 +17°C° 0 mm 3 m/s 728 mmHg 82%
08:00 +18°C° 0 mm 4 m/s 728 mmHg 76%
09:00 +19°C° 0 mm 4 m/s 728 mmHg 70%
10:00 +21°C° 0 mm 4 m/s 728 mmHg 63%
11:00 +21°C° 0.1 mm 4 m/s 728 mmHg 60%
12:00 +22°C° 0.1 mm 4 m/s 727 mmHg 58%
13:00 +22°C° 0.1 mm 4 m/s 727 mmHg 55%
14:00 +22°C° 0 mm 3 m/s 727 mmHg 56%
15:00 +22°C° 0 mm 3 m/s 727 mmHg 57%
16:00 +22°C° 0 mm 3 m/s 726 mmHg 58%
17:00 +21°C° 0.2 mm 2 m/s 726 mmHg 65%
18:00 +20°C° 0.2 mm 1 m/s 726 mmHg 71%
19:00 +19°C° 0.2 mm 1 m/s 726 mmHg 78%
20:00 +17°C° 0.6 mm 2 m/s 726 mmHg 82%
21:00 +16°C° 0.6 mm 2 m/s 726 mmHg 87%
22:00 +16°C° 0.6 mm 3 m/s 726 mmHg 92%
23:00 +15°C° 1.3 mm 2 m/s 726 mmHg 94%
Mostrar mais

Necessitamos do seu Consentimento

A Meteoprog e os seus Fornecedores de Serviços podem armazenar e aceder a dados pessoais como cookies, identificadores do dispositivo ou outras tecnologias semelhantes existentes no seu dispositivo e processar estes dados para personalizar conteúdos e anúncios, assim como funcionalidades nas redes sociais e análise de tráfego.

  • Armazenar e/ou aceder a informações no seu dispositivo

    Os cookies, identificadores do dispositivo ou outras informações podem ser armazenados ou acedidos no seu dispositivo, para os fins acima indicados.

  • Anúncios e conteúdos personalizados, medição de anúncios e conteúdos, dados sobre o público-alvo e desenvolvimento de produtos

    Os anúncios e os conteúdos podem ser personalizados com base num perfil. Podem ser adicionados dados adicionais para uma maior personalização dos anúncios e dos conteúdos. A eficácia dos anúncios e dos conteúdos pode ser medida. Podem ser obtidas informações sobre o público que visualizou os anúncios e os conteúdos. Estes dados podem ser usados para desenvolver ou melhorar sistemas, softwares ou a experiência do utilizador.

Ao clicar em "Eu concordo”, permitirá o uso de cookies, identificadores do dispositivo e web beacons mencionados ou outras tecnologias semelhantes. As configurações do navegador do seu dispositivo podem ser alteradas.

Para certos fins, podem ser invocados interesses legítimos ao invés de consentimento. Pode ler mais informação sobre este assunto na nossa Política de Privacidade e Cookies.